KC5CPO Weather Reports


time (UTC)temp
C
wind
direction
speed
KPH
gust
KPH
rain 1hr
cm
rain 24hr
cm
rain mn
cm
humidity
%
barometer
mb
20260507120421 10 225 0.0 0.0 0.00 0.00 0.00 98 1012.2
20260507115923 10 225 1.6 3.2 0.00 0.00 0.00 98 1012.5
20260507115422 10 203 4.8 4.8 0.00 0.00 0.00 97 1012.5
20260507114922 10 203 1.6 3.2 0.00 0.00 0.00 97 1012.2
20260507114421 10 203 0.0 0.0 0.00 0.00 0.00 97 1012.2
20260507113921 10 203 0.0 0.0 0.00 0.00 0.00 97 1011.9
20260507113421 10 203 1.6 3.2 0.00 0.00 0.00 97 1011.9
20260507112921 10 225 0.0 0.0 0.00 0.00 0.00 96 1011.9
20260507112421 10 248 0.0 0.0 0.00 0.00 0.00 96 1011.9
20260507111921 10 248 0.0 0.0 0.00 0.00 0.00 96 1011.9
20260507111422 10 270 0.0 0.0 0.00 0.00 0.00 96 1011.5
20260507110921 10 203 0.0 0.0 0.00 0.00 0.00 96 1011.9
20260507110421 10 225 0.0 0.0 0.00 0.00 0.00 96 1011.5
20260507105922 11 270 0.0 1.6 0.00 0.00 0.00 96 1011.5
20260507105421 11 270 1.6 3.2 0.00 0.00 0.00 95 1011.2
20260507104921 11 270 3.2 3.2 0.00 0.00 0.00 95 1011.2
20260507104422 11 270 0.0 1.6 0.00 0.00 0.00 95 1011.2
20260507103921 11 270 0.0 1.6 0.00 0.00 0.00 95 1011.2
20260507103422 11 270 3.2 4.8 0.00 0.00 0.00 95 1011.2
20260507102922 11 270 1.6 3.2 0.00 0.00 0.00 95 1010.8
20260507102422 11 270 0.0 0.0 0.00 0.00 0.00 95 1010.5
20260507101922 11 270 1.6 3.2 0.00 0.00 0.00 95 1010.8
20260507101421 11 270 0.0 1.6 0.00 0.00 0.00 96 1010.5
20260507100922 11 270 1.6 3.2 0.00 0.00 0.00 96 1010.5
20260507100422 11 270 3.2 3.2 0.00 0.00 0.00 96 1010.5
20260507095922 11 270 1.6 3.2 0.00 0.00 0.00 96 1010.2
20260507095422 11 270 4.8 4.8 0.00 0.00 0.00 95 1010.2
20260507094921 11 270 1.6 3.2 0.00 0.00 0.00 95 1010.2
20260507094421 11 248 1.6 3.2 0.00 0.00 0.00 94 1010.2
20260507093922 11 270 1.6 3.2 0.00 0.00 0.00 94 1010.2
20260507093422 11 270 3.2 4.8 0.00 0.00 0.00 94 1010.2
20260507092922 11 270 1.6 3.2 0.00 0.00 0.00 93 1010.2
20260507092421 11 248 1.6 3.2 0.00 0.00 0.00 93 1009.8
20260507091922 11 270 1.6 3.2 0.00 0.00 0.00 92 1010.2
20260507091422 11 248 1.6 3.2 0.00 0.00 0.00 92 1009.8
20260507090922 11 248 3.2 3.2 0.00 0.00 0.00 92 1009.8
20260507090421 11 203 3.2 4.8 0.00 0.00 0.00 91 1009.8
20260507085921 11 248 1.6 3.2 0.00 0.00 0.00 91 1009.8
20260507085422 11 203 3.2 3.2 0.00 0.00 0.00 91 1009.8
20260507084921 12 248 3.2 4.8 0.00 0.00 0.00 91 1009.8
20260507084421 12 248 1.6 3.2 0.00 0.00 0.00 90 1009.8
20260507083921 12 225 3.2 3.2 0.00 0.00 0.00 90 1009.8
20260507083422 12 248 4.8 8.0 0.00 0.00 0.00 90 1009.5
20260507082921 12 270 3.2 4.8 0.00 0.00 0.00 89 1009.5
20260507082421 12 248 4.8 4.8 0.00 0.00 0.00 90 1009.5
20260507081925 12 203 3.2 4.8 0.00 0.00 0.00 90 1009.5
20260507081422 12 248 6.4 8.0 0.00 0.00 0.00 91 1009.5
20260507080921 12 248 6.4 8.0 0.00 0.00 0.00 92 1009.5
20260507080421 12 225 3.2 3.2 0.00 0.00 0.00 92 1009.5
20260507075922 12 225 0.0 0.0 0.00 0.00 0.00 92 1009.8
20260507075421 12 203 3.2 3.2 0.00 0.00 0.00 92 1009.8
20260507074923 13 248 1.6 3.2 0.00 0.00 0.00 91 1009.8
20260507074421 13 225 3.2 3.2 0.00 0.00 0.00 91 1009.8
20260507073921 13 270 3.2 3.2 0.00 0.00 0.00 90 1009.5
20260507073423 13 248 3.2 4.8 0.00 0.00 0.00 90 1009.5
20260507072921 13 248 4.8 8.0 0.00 0.00 0.00 90 1009.5
20260507072422 13 270 3.2 3.2 0.00 0.00 0.00 90 1009.1
20260507071925 13 270 6.4 8.0 0.00 0.00 0.00 89 1009.1
20260507071422 13 270 3.2 4.8 0.00 0.00 0.00 88 1009.1
20260507070923 13 248 11.3 14.5 0.00 0.00 0.00 88 1008.8
20260507070421 13 248 4.8 4.8 0.00 0.00 0.00 87 1008.8
20260507065921 13 270 4.8 4.8 0.00 0.00 0.00 87 1008.8
20260507065422 13 248 4.8 6.4 0.00 0.00 0.00 87 1008.8
20260507064921 13 248 3.2 4.8 0.00 0.00 0.00 87 1008.8
20260507064422 13 270 4.8 6.4 0.00 0.00 0.00 87 1008.8
20260507063922 14 270 4.8 4.8 0.00 0.00 0.00 87 1008.5
20260507063422 14 203 8.0 11.3 0.00 0.00 0.00 87 1008.8
20260507062922 14 203 6.4 9.7 0.00 0.00 0.00 87 1008.8
20260507062422 14 270 1.6 3.2 0.00 0.00 0.00 88 1008.8
20260507061922 14 180 6.4 8.0 0.00 0.00 0.00 88 1009.1
20260507061421 14 225 3.2 3.2 0.00 0.00 0.00 88 1009.1
20260507060923 14 248 4.8 6.4 0.00 0.00 0.00 88 1008.8
20260507060422 14 203 4.8 4.8 0.00 0.00 0.00 88 1009.1
20260507055921 14 248 3.2 4.8 0.00 0.00 0.00 88 1009.1
20260507055421 14 203 6.4 11.3 0.00 0.00 0.00 88 1009.1
20260507054922 14 248 4.8 8.0 0.00 0.00 0.00 87 1008.8
20260507054421 14 270 6.4 8.0 0.00 0.00 0.00 88 1009.1
20260507053923 14 248 4.8 6.4 0.00 0.00 0.00 88 1009.1
20260507053422 14 225 4.8 6.4 0.00 0.00 0.00 88 1009.1
20260507052921 14 248 4.8 6.4 0.00 0.00 0.00 88 1009.1
20260507052421 14 225 4.8 6.4 0.00 0.00 0.00 88 1009.1
20260507051921 14 248 6.4 8.0 0.00 0.00 0.00 88 1009.1
20260507051421 14 248 4.8 4.8 0.00 0.00 0.00 88 1008.8
20260507050923 14 225 4.8 6.4 0.00 0.00 0.00 89 1008.8
20260507050422 14 248 3.2 3.2 0.00 0.00 0.00 89 1008.8
20260507045921 14 248 4.8 6.4 0.00 0.00 0.03 89 1009.1
20260507045421 14 248 3.2 3.2 0.00 0.00 0.03 89 1009.1
20260507044922 14 270 4.8 8.0 0.00 0.00 0.03 89 1009.1
20260507044422 14 225 1.6 3.2 0.00 0.00 0.03 89 1009.1
20260507043921 14 203 4.8 4.8 0.00 0.00 0.03 90 1009.1
20260507043422 13 248 3.2 4.8 0.00 0.00 0.03 91 1009.1
20260507042922 13 225 1.6 3.2 0.00 0.00 0.03 91 1009.1
20260507042421 13 225 4.8 6.4 0.00 0.00 0.03 92 1009.1
20260507041925 13 225 4.8 6.4 0.00 0.00 0.03 92 1009.1
20260507041422 13 225 6.4 8.0 0.00 0.00 0.03 91 1009.1
20260507040921 14 225 4.8 6.4 0.00 0.00 0.03 91 1009.1
20260507040422 14 225 4.8 4.8 0.00 0.00 0.03 91 1009.1
20260507035921 14 225 3.2 4.8 0.00 0.00 0.03 91 1009.1
20260507035422 14 225 3.2 3.2 0.00 0.00 0.03 91 1009.1
20260507034922 14 225 4.8 6.4 0.00 0.00 0.03 91 1009.1
20260507034421 14 225 3.2 6.4 0.00 0.00 0.03 91 1009.5
20260507033921 14 270 1.6 3.2 0.00 0.00 0.03 92 1009.5
20260507033422 14 270 3.2 4.8 0.00 0.00 0.03 92 1009.5
20260507032922 14 203 3.2 4.8 0.00 0.00 0.03 92 1009.5
20260507032422 14 248 3.2 4.8 0.00 0.00 0.03 93 1009.1
20260507031922 14 248 3.2 3.2 0.00 0.00 0.03 93 1009.1
20260507031422 14 225 3.2 3.2 0.00 0.00 0.03 93 1009.1
20260507030922 14 248 3.2 3.2 0.00 0.00 0.03 93 1009.1
20260507030421 13 270 3.2 4.8 0.00 0.00 0.03 94 1009.1
20260507025922 13 248 3.2 3.2 0.00 0.00 0.03 94 1008.8
20260507025421 13 225 1.6 3.2 0.00 0.00 0.03 95 1008.8
20260507024922 13 225 3.2 3.2 0.00 0.00 0.03 95 1008.8
20260507024422 13 225 1.6 3.2 0.00 0.00 0.03 95 1008.8
20260507023922 13 270 0.0 1.6 0.00 0.00 0.03 94 1008.8
20260507023421 13 248 3.2 3.2 0.00 0.00 0.03 94 1008.8
20260507022922 13 248 0.0 0.0 0.00 0.00 0.03 94 1008.8
20260507022422 13 270 0.0 0.0 0.00 0.00 0.03 94 1008.8
20260507021921 13 203 1.6 3.2 0.00 0.00 0.03 94 1008.5
20260507021423 13 203 1.6 3.2 0.00 0.00 0.03 93 1008.5
20260507020921 14 225 3.2 3.2 0.00 0.00 0.03 93 1008.5
20260507020424 14 203 0.0 1.6 0.00 0.00 0.03 93 1008.1
20260507015922 14 270 3.2 3.2 0.00 0.00 0.03 92 1008.1
20260507015423 14 248 3.2 3.2 0.00 0.00 0.03 92 1008.1
20260507014922 14 270 1.6 3.2 0.00 0.00 0.03 91 1007.8
20260507014421 14 248 1.6 3.2 0.00 0.00 0.03 91 1007.8
20260507013923 15 203 3.2 3.2 0.00 0.00 0.03 90 1007.5
20260507012937 15 203 3.2 3.2 0.00 0.00 0.03 89 1007.5
20260507012422 15 225 1.6 3.2 0.00 0.00 0.03 89 1007.1
20260507011922 15 203 4.8 6.4 0.00 0.00 0.03 88 1007.1
20260507011422 15 270 3.2 3.2 0.00 0.00 0.03 88 1007.5
20260507010921 15 248 1.6 1.6 0.00 0.00 0.03 88 1007.1
20260507010422 15 225 4.8 6.4 0.00 0.00 0.03 87 1006.8
20260507005921 15 248 6.4 8.0 0.00 0.00 0.03 87 1006.8
20260507005422 15 203 3.2 3.2 0.00 0.00 0.03 87 1006.8
20260507004922 15 225 3.2 3.2 0.00 0.00 0.03 86 1007.1
20260507004421 15 203 4.8 4.8 0.00 0.00 0.03 86 1006.8
20260507003922 15 225 4.8 6.4 0.00 0.00 0.03 85 1007.1
20260507003422 15 225 1.6 3.2 0.00 0.00 0.03 85 1007.1
20260507002922 15 203 3.2 3.2 0.00 0.00 0.03 85 1007.1
20260507002421 15 270 3.2 3.2 0.00 0.00 0.03 85 1007.1
20260507001922 15 270 4.8 4.8 0.00 0.00 0.03 85 1007.1
20260507001422 15 248 3.2 3.2 0.00 0.00 0.03 85 1007.1
20260507000921 15 225 3.2 3.2 0.00 0.00 0.03 85 1006.8
20260507000421 15 203 1.6 3.2 0.00 0.00 0.03 84 1006.8
20260506235921 15 203 3.2 3.2 0.00 0.00 0.03 86 1006.8
20260506235422 15 270 4.8 8.0 0.00 0.00 0.03 84 1006.8
20260506234924 15 270 4.8 8.0 0.00 0.00 0.03 85 1006.8
20260506234421 15 270 3.2 4.8 0.00 0.00 0.03 85 1006.8
20260506233922 15 270 1.6 3.2 0.00 0.00 0.03 86 1006.4
20260506233421 15 270 3.2 4.8 0.00 0.00 0.03 84 1006.4
20260506232921 15 248 6.4 11.3 0.00 0.00 0.03 84 1006.4
20260506232421 15 248 4.8 4.8 0.00 0.00 0.03 85 1006.4
20260506231922 15 270 4.8 6.4 0.00 0.00 0.03 86 1006.4
20260506231421 16 270 6.4 8.0 0.00 0.00 0.03 84 1006.4
20260506230921 16 270 3.2 4.8 0.00 0.00 0.03 83 1006.4
20260506230421 16 248 6.4 9.7 0.00 0.00 0.03 80 1006.4
20260506225921 16 270 3.2 3.2 0.00 0.00 0.03 78 1006.4
20260506225421 16 248 3.2 4.8 0.00 0.00 0.03 77 1006.1
20260506224922 16 203 3.2 3.2 0.00 0.00 0.03 77 1006.1
20260506224422 16 248 3.2 4.8 0.00 0.00 0.03 76 1006.4
20260506223921 16 270 1.6 3.2 0.00 0.00 0.03 76 1006.1
20260506223422 16 248 4.8 8.0 0.00 0.00 0.03 76 1006.1
20260506222921 16 225 4.8 4.8 0.00 0.00 0.03 76 1006.1
20260506222421 16 248 6.4 8.0 0.00 0.00 0.03 74 1006.4
20260506221922 16 270 3.2 4.8 0.00 0.00 0.03 75 1006.1
20260506221422 17 225 6.4 9.7 0.00 0.00 0.03 75 1006.1
20260506220922 17 248 6.4 8.0 0.00 0.00 0.03 74 1006.1
20260506220421 17 180 3.2 3.2 0.00 0.00 0.03 74 1006.1
20260506215921 17 225 8.0 11.3 0.00 0.00 0.03 74 1006.1
20260506215421 17 270 8.0 11.3 0.00 0.00 0.03 74 1006.1
20260506214421 16 248 4.8 6.4 0.00 0.00 0.03 75 1006.1
20260506213922 16 270 6.4 8.0 0.00 0.00 0.03 75 1006.1
20260506212422 16 270 6.4 8.0 0.00 0.00 0.03 75 1006.4
20260506211922 16 270 3.2 4.8 0.00 0.00 0.03 75 1006.1
20260506211421 16 248 9.7 11.3 0.00 0.00 0.03 73 1006.1
20260506210922 16 248 4.8 6.4 0.00 0.00 0.03 75 1006.1
20260506205422 16 270 4.8 6.4 0.00 0.00 0.03 74 1006.1
20260506204921 16 248 8.0 9.7 0.00 0.00 0.03 73 1006.1
20260506204421 16 248 8.0 11.3 0.00 0.00 0.03 75 1006.1
20260506203921 16 270 17.7 17.7 0.00 0.00 0.03 75 1006.1
20260506203421 16 180 4.8 4.8 0.00 0.00 0.03 76 1006.4
20260506202922 16 203 6.4 8.0 0.00 0.00 0.03 76 1006.1
20260506202422 16 270 6.4 8.0 0.00 0.00 0.03 76 1006.4
20260506201922 16 270 6.4 8.0 0.00 0.00 0.03 77 1006.4
20260506201422 15 248 4.8 4.8 0.00 0.00 0.03 78 1006.8
20260506200921 15 270 4.8 8.0 0.00 0.00 0.03 80 1006.4
20260506200422 15 270 6.4 9.7 0.00 0.00 0.03 79 1006.8
20260506195922 14 225 3.2 6.4 0.00 0.00 0.03 80 1006.8
20260506195421 14 203 4.8 6.4 0.00 0.00 0.03 82 1007.1
20260506194922 13 225 6.4 8.0 0.00 0.00 0.03 83 1007.1
20260506194421 13 270 3.2 4.8 0.00 0.00 0.03 83 1006.8
20260506193922 13 248 4.8 8.0 0.00 0.00 0.03 83 1007.1
20260506193421 13 270 9.7 12.9 0.00 0.00 0.03 83 1007.1
20260506192922 14 270 11.3 14.5 0.00 0.00 0.03 82 1007.1
20260506192421 14 248 3.2 4.8 0.00 0.00 0.03 83 1006.8
20260506191921 13 225 8.0 12.9 0.00 0.00 0.03 83 1007.1
20260506191422 13 248 4.8 8.0 0.00 0.00 0.03 85 1007.1
20260506190922 13 248 9.7 11.3 0.00 0.00 0.03 86 1007.1
20260506190421 13 270 3.2 3.2 0.00 0.00 0.03 87 1007.1
20260506185922 12 270 9.7 11.3 0.00 0.00 0.03 86 1007.1
20260506185422 12 270 6.4 9.7 0.00 0.00 0.03 86 1007.5
20260506184921 13 248 12.9 17.7 0.00 0.00 0.03 86 1007.5
20260506184422 13 203 8.0 11.3 0.00 0.00 0.03 86 1007.8
20260506183922 13 270 3.2 3.2 0.00 0.00 0.03 87 1007.8
20260506183421 13 270 6.4 9.7 0.00 0.00 0.03 87 1007.5
20260506182924 13 225 4.8 8.0 0.00 0.00 0.03 87 1007.5
20260506182421 12 270 3.2 4.8 0.00 0.00 0.03 88 1007.8
20260506181922 12 270 3.2 3.2 0.00 0.00 0.03 88 1007.8
20260506181421 12 270 8.0 11.3 0.00 0.00 0.03 87 1007.8
20260506180921 12 203 3.2 4.8 0.00 0.00 0.03 88 1007.8
20260506180422 12 248 9.7 12.9 0.00 0.00 0.03 88 1007.5
20260506175922 12 270 8.0 11.3 0.00 0.00 0.03 87 1007.1
20260506175422 13 270 6.4 9.7 0.00 0.00 0.03 88 1006.4
20260506174923 12 270 9.7 12.9 0.00 0.00 0.03 88 1006.1
20260506174422 12 270 8.0 9.7 0.00 0.00 0.03 88 1005.8
20260506173922 12 248 6.4 8.0 0.00 0.00 0.03 88 1005.8
20260506173423 12 270 20.9 24.1 0.00 0.00 0.03 88 1005.8
20260506172921 13 248 6.4 8.0 0.00 0.00 0.03 88 1006.1
20260506172422 12 270 8.0 11.3 0.00 0.00 0.03 88 1006.1
20260506171925 12 248 8.0 11.3 0.00 0.00 0.03 88 1005.8
20260506171422 12 203 4.8 8.0 0.00 0.00 0.03 87 1006.4
20260506170922 12 270 6.4 11.3 0.00 0.00 0.03 88 1006.8
20260506170421 12 225 6.4 8.0 0.00 0.00 0.03 88 1006.8
20260506165923 12 248 6.4 9.7 0.00 0.00 0.03 88 1006.8
20260506165422 12 248 9.7 11.3 0.00 0.00 0.03 88 1006.8
20260506164922 12 270 4.8 6.4 0.00 0.00 0.03 88 1007.5
20260506164424 12 248 4.8 6.4 0.00 0.00 0.03 88 1007.1
20260506163922 12 203 8.0 11.3 0.00 0.00 0.03 88 1007.5
20260506163421 12 270 8.0 9.7 0.00 0.00 0.03 88 1007.1
20260506162921 12 248 8.0 8.0 0.03 0.00 0.03 89 1006.8
20260506162422 12 270 6.4 8.0 0.03 0.00 0.03 89 1006.8
20260506161921 12 270 8.0 11.3 0.03 0.00 0.03 87 1006.8
20260506161422 13 270 6.4 9.7 0.03 0.00 0.03 87 1006.8
20260506160922 13 248 9.7 11.3 0.03 0.00 0.03 89 1006.8
20260506160424 13 270 8.0 11.3 0.03 0.00 0.03 90 1006.4
20260506155922 12 225 11.3 14.5 0.03 0.00 0.03 88 1006.4
20260506155421 12 270 9.7 12.9 0.03 0.00 0.03 93 1006.4
20260506154922 12 270 8.0 11.3 0.00 0.00 0.03 92 1006.4
20260506154421 12 203 6.4 8.0 0.00 0.00 0.03 94 1006.8
20260506153922 11 270 4.8 8.0 0.00 0.00 0.03 94 1006.8
20260506153422 11 203 11.3 14.5 0.00 0.00 0.03 93 1006.8
20260506152922 11 248 11.3 17.7 0.00 0.00 0.03 93 1006.8
20260506152422 11 270 4.8 6.4 0.00 0.00 0.00 94 1007.1
20260506151922 11 248 6.4 8.0 0.00 0.00 0.00 94 1006.8
20260506151423 11 225 4.8 4.8 0.00 0.00 0.00 94 1007.1
20260506150922 11 248 8.0 11.3 0.00 0.00 0.00 93 1007.1
20260506150421 11 248 9.7 11.3 0.00 0.00 0.00 93 1007.1
20260506145922 11 248 8.0 11.3 0.00 0.00 0.00 92 1008.1
20260506145422 11 248 6.4 8.0 0.00 0.00 0.00 91 1007.5
20260506144922 11 270 6.4 9.7 0.00 0.00 0.00 90 1007.8
20260506144421 11 248 6.4 8.0 0.00 0.00 0.00 89 1007.5
20260506143922 11 248 8.0 12.9 0.00 0.00 0.00 87 1008.5
20260506143422 11 270 6.4 9.7 0.00 0.00 0.00 87 1008.8
20260506142922 11 270 9.7 11.3 0.00 0.00 0.00 87 1007.8
20260506142422 11 270 4.8 4.8 0.00 0.00 0.00 87 1007.8
20260506141923 11 248 6.4 8.0 0.00 0.00 0.00 87 1007.8
20260506141421 11 248 4.8 8.0 0.00 0.00 0.00 86 1007.5
20260506140921 11 270 11.3 16.1 0.00 0.00 0.00 85 1006.1
20260506140422 11 270 8.0 9.7 0.00 0.00 0.00 84 1006.8
20260506135921 12 270 6.4 9.7 0.00 0.00 0.00 84 1006.4
20260506135422 12 270 8.0 14.5 0.00 0.00 0.00 84 1006.4
20260506134922 12 248 14.5 20.9 0.00 0.00 0.00 83 1006.4
20260506134423 12 270 8.0 17.7 0.00 0.00 0.00 82 1006.8
20260506133922 12 248 4.8 4.8 0.00 0.00 0.00 82 1006.8
20260506133421 12 270 8.0 9.7 0.00 0.00 0.00 82 1006.4
20260506132924 12 270 9.7 11.3 0.00 0.00 0.00 81 1006.1
20260506132421 12 248 6.4 9.7 0.00 0.00 0.00 81 1006.1
20260506131922 12 270 9.7 12.9 0.00 0.00 0.00 80 1005.8
20260506131422 12 270 12.9 16.1 0.00 0.00 0.00 79 1005.8
20260506130927 12 248 4.8 4.8 0.00 0.00 0.00 80 1005.8
20260506130422 12 248 9.7 11.3 0.00 0.00 0.00 80 1005.8
20260506125924 12 270 6.4 16.1 0.00 0.00 0.00 80 1005.8
20260506125422 13 248 6.4 8.0 0.00 0.00 0.00 80 1005.4
20260506124922 12 270 3.2 3.2 0.00 0.00 0.00 80 1005.4
20260506124421 12 270 3.2 6.4 0.00 0.00 0.00 81 1005.4
20260506123921 12 270 4.8 6.4 0.00 0.00 0.00 80 1005.4
20260506123421 12 248 11.3 16.1 0.00 0.00 0.00 80 1005.4
20260506122922 13 270 14.5 20.9 0.00 0.00 0.00 80 1005.1
20260506122422 13 248 3.2 4.8 0.00 0.00 0.00 81 1005.1
20260506121435 13 270 9.7 14.5 0.00 0.00 0.00 81 1005.1
20260506120921 13 203 4.8 6.4 0.00 0.00 0.00 81 1005.1